Theta_e
350 344 344 340 338 336 334 333 334 333 333 333 333 333 332 332 332 332 333 335 332 332 332 334 340 339 338 335 341 339 340 337 336 336 336 336 330 333 336 342 344 331 334
351 344 346 344 343 340 336 334 333 334 334 333 333 334 334 334 332 331 335 336 338 333 337 338 337 333 331 333 337 338 339 337 337 338 335 330 330 335 341 344 347 331 333
350 343 345 345 343 343 341 338 338 336 336 334 333 333 333 332 333 333 334 334 337 333 332 340 338 338 331 336 338 338 338 335 338 337 340 342 333 335 340 342 337 330 335
346 346 335 341 339 341 344 345 342 343 342 336 339 339 334 335 337 342 340 337 340 339 332 338 338 338 333 335 338 339 336 340 344 339 345 345 343 339 337 335 333 334 334
349 349 332 333 337 335 336 344 345 337 335 337 337 336 337 338 337 339 341 338 339 341 342 331 333 338 338 334 338 333 338 344 345 346 347 345 345 332 335 336 334 332 339
351 339 332 332 340 343 334 334 335 336 335 336 339 338 339 339 342 339 339 339 341 340 342 337 331 335 334 333 336 328 335 345 346 347 349 346 345 331 332 342 339 341 340
351 335 336 333 333 338 337 343 342 333 332 333 342 338 335 335 341 333 337 335 340 337 337 339 336 340 340 332 336 334 337 344 344 345 344 343 339 331 334 339 335 330 333
350 344 331 335 336 335 334 336 333 330 332 334 333 336 336 336 333 329 329 332 337 341 332 334 337 334 338 341 339 336 339 343 346 346 348 345 344 331 333 328 326 330 329
346 349 338 332 330 332 332 332 330 341 340 334 334 339 334 333 332 331 331 331 327 333 336 338 333 335 334 338 339 338 339 340 346 345 347 346 340 333 334 332 330 336 330
346 348 351 342 331 328 338 338 329 331 330 329 332 333 336 331 331 332 331 338 340 338 333 328 333 335 331 331 333 333 334 338 347 347 346 344 345 340 334 337 332 333 330
347 346 349 351 347 344 334 329 328 329 329 328 331 329 337 346 348 346 346 341 338 337 336 336 333 331 329 325 326 331 327 330 346 345 347 345 342 335 331 335 335 334 331
347 347 345 349 347 348 349 334 332 333 338 347 347 350 339 341 345 349 348 345 345 345 344 341 341 341 340 336 345 345 344 332 340 345 347 346 345 339 335 328 334 336 333
344 347 345 348 345 348 350 345 346 347 349 347 346 337 349 344 343 344 347 348 348 347 348 348 346 346 348 348 347 346 346 347 344 340 343 344 342 340 337 335 332 332 336
347 346 345 346 347 345 350 347 348 348 348 347 348 345 350 348 350 348 349 350 350 349 350 348 346 342 343 346 348 347 346 346 345 344 344 343 342 342 342 334 339 336 331
347 347 347 349 347 348 347 345 349 348 346 348 349 350 352 353 351 351 348 351 351 348 346 347 345 345 340 342 345 348 347 346 345 343 342 344 345 343 343 340 335 339 337
345 346 347 349 350 347 347 348 348 347 349 350 349 350 350 351 352 351 351 352 349 349 350 349 347 346 344 341 343 345 346 344 345 344 342 340 339 338 339 344 339 335 339
344 345 346 347 350 350 348 347 348 349 347 349 350 351 351 350 352 351 347 346 351 352 347 350 348 346 347 345 341 345 346 343 344 343 343 343 341 339 342 344 344 336 336
342 344 344 343 348 349 351 351 350 346 348 349 349 351 352 351 350 347 351 351 349 348 351 349 342 344 346 346 347 346 347 346 345 347 347 347 345 342 342 342 344 343 332
346 344 344 343 345 346 349 350 351 352 348 350 350 350 350 343 352 351 349 351 350 352 347 342 341 341 342 344 344 345 347 346 345 348 347 347 349 347 346 345 342 342 339
351 349 344 344 344 345 347 348 352 352 351 349 350 351 354 351 351 346 352 352 347 346 346 343 345 342 341 344 347 347 346 345 346 350 350 349 347 350 349 349 348 345 343
350 351 347 346 346 347 348 349 351 351 350 350 351 352 353 353 353 348 351 350 347 348 342 345 345 340 344 346 346 346 343 344 346 350 348 346 347 346 347 351 350 346 344
347 347 346 346 348 348 351 352 352 351 351 352 353 352 350 350 351 349 350 351 348 340 345 339 343 343 342 346 342 341 345 348 345 348 349 350 347 347 347 348 347 348 348
349 350 347 342 350 348 351 352 352 353 353 353 354 350 347 347 347 350 348 349 330 340 341 344 344 342 342 341 340 343 341 343 343 342 346 347 345 347 347 346 348 349 350
350 351 352 352 349 349 351 354 353 352 353 349 351 354 346 349 351 350 353 335 337 344 342 339 329 332 337 337 338 338 339 339 344 342 342 341 342 345 345 347 346 347 348
349 350 352 352 354 353 351 353 353 353 355 354 355 353 349 349 351 351 342 333 335 342 335 332 334 333 333 340 335 336 335 336 338 337 338 339 339 340 347 345 347 346 346
348 349 351 353 353 354 353 349 353 355 354 353 354 350 345 347 348 342 335 339 338 346 335 338 338 341 338 338 335 335 336 335 337 337 337 338 338 340 344 344 343 347 347
Wind_Speed
15 18 18 18 17 17 18 18 18 18 18 19 19 19 17 17 14 11 8 8 8 8 7 6 7 7 8 9 10 11 13 14 13 12 11 12 11 15 16 17 14 11 14
21 20 18 18 17 17 17 17 17 16 16 15 14 15 14 12 10 8 8 8 8 6 5 5 6 6 7 9 10 11 13 13 13 12 11 10 11 13 14 16 12 10 12
22 22 19 17 16 16 16 16 15 16 14 13 12 11 9 9 10 9 8 8 7 6 6 7 9 8 9 11 11 13 14 13 11 8 9 8 9 11 12 14 10 10 11
22 19 19 17 16 15 15 14 13 13 12 12 12 10 10 10 9 10 7 8 8 9 9 8 8 7 8 10 11 12 14 15 11 17 15 12 7 9 10 9 8 10 10
22 19 18 17 16 15 14 14 11 11 11 11 10 10 10 9 9 9 9 8 8 7 8 7 7 6 7 8 9 11 17 14 8 7 6 15 6 7 9 8 9 11 11
20 16 20 18 17 16 14 13 12 11 10 11 10 9 10 9 8 7 7 7 7 7 7 6 7 6 5 6 8 10 15 13 9 11 6 3 5 6 9 10 9 9 10
21 16 18 18 17 15 14 13 10 9 10 9 10 7 7 8 7 6 6 5 5 5 5 5 4 4 4 6 6 8 11 10 11 7 1 3 3 2 8 9 8 7 7
18 17 17 16 16 15 14 11 9 9 9 8 9 8 6 5 4 5 4 4 3 3 3 3 3 2 2 3 4 7 9 8 9 7 1 1 3 2 7 8 8 9 8
18 16 15 15 14 13 13 11 10 10 8 7 7 7 5 5 4 4 2 3 3 2 1 0 0 1 1 2 2 3 5 5 7 7 12 3 5 2 6 6 8 9 8
21 14 13 11 14 13 13 11 10 8 6 6 6 5 6 5 4 4 2 2 2 1 3 3 3 3 3 4 4 4 3 5 5 7 9 5 9 5 6 8 8 9 8
17 17 15 12 11 9 10 8 7 7 6 5 4 4 2 3 3 2 2 4 3 3 3 3 5 6 6 6 2 3 5 7 2 3 12 8 8 5 5 7 8 9 9
16 19 16 16 13 14 10 6 5 4 6 4 3 3 1 2 1 3 4 4 5 4 5 3 4 5 7 5 11 13 11 8 6 2 10 12 9 9 9 7 8 10 10
16 18 16 17 12 12 16 2 3 3 9 4 5 5 2 1 2 3 3 4 6 5 7 6 6 8 8 7 11 15 11 9 10 8 8 8 10 10 11 10 10 10 11
17 15 14 16 15 9 10 4 11 9 5 12 4 3 8 5 4 4 4 7 5 8 10 11 13 13 9 11 11 14 9 10 13 11 10 12 14 14 12 14 14 12 12
17 15 16 15 19 14 12 9 6 10 6 9 5 4 12 4 7 4 4 5 7 11 8 11 15 16 12 9 12 15 16 15 19 18 18 17 19 18 18 17 18 16 16
18 18 16 13 13 19 17 11 7 8 7 6 6 7 5 5 10 8 4 5 7 7 9 12 14 18 14 13 9 13 17 21 23 26 26 29 27 25 22 20 19 21 20
17 18 17 16 13 15 13 15 11 6 5 7 10 7 2 7 9 11 9 7 9 9 13 13 17 16 15 14 12 12 18 16 23 21 23 23 23 25 24 22 22 25 25
17 21 17 15 16 13 12 11 8 7 7 9 10 3 8 8 7 10 10 11 9 9 8 15 12 12 10 8 10 12 16 16 17 19 21 20 18 21 25 24 22 24 28
16 19 19 16 17 14 15 13 11 11 11 12 13 10 11 3 4 14 4 9 8 8 9 15 14 14 11 10 9 9 11 14 14 11 14 17 21 20 20 21 25 24 28
18 17 19 18 15 17 13 14 10 10 13 11 12 9 11 2 4 2 2 9 9 11 13 17 11 16 13 11 14 10 13 15 18 18 22 17 20 29 28 23 22 24 26
19 20 22 19 19 17 17 14 13 13 12 8 10 5 6 7 3 3 2 9 10 7 11 12 10 8 13 15 11 12 12 17 9 7 18 19 22 26 25 23 26 22 28
24 21 22 23 20 22 18 14 12 10 12 9 11 6 10 9 3 3 3 6 8 8 7 10 11 10 6 13 14 14 9 5 9 10 12 8 20 20 17 19 30 25 24
28 21 20 22 23 20 16 15 16 10 11 11 6 11 8 4 1 2 5 4 4 9 7 8 6 7 6 11 12 10 8 8 19 17 18 18 24 20 14 11 14 19 24
26 23 20 19 22 22 20 15 15 16 15 10 7 5 3 2 4 6 1 5 9 5 6 3 6 5 6 7 6 10 9 13 10 14 20 22 24 24 19 10 9 15 20
27 26 23 22 21 22 21 17 16 16 10 8 9 7 4 5 8 6 3 4 5 2 6 8 8 12 9 8 6 8 14 9 13 14 20 21 22 20 16 17 12 10 12
29 27 27 25 24 22 22 22 17 14 14 15 10 3 1 5 10 3 2 6 6 1 4 9 11 13 15 12 13 7 9 11 16 14 16 18 19 18 13 16 19 11 8
Wind_Direction
135 136 131 125 122 116 116 115 113 115 115 111 114 112 111 112 113 115 109 98 100 99 97 76 71 79 81 79 89 96 104 116 118 117 112 109 102 112 112 102 85 116 119
136 133 130 129 125 122 119 119 119 118 114 114 113 108 110 113 111 107 100 89 90 98 81 59 58 76 85 89 95 95 96 104 106 105 100 107 115 120 118 122 134 123 126
137 136 134 132 132 128 127 124 119 116 113 114 111 110 114 118 113 111 97 93 94 85 85 77 73 71 95 101 100 100 100 101 104 124 105 81 116 129 127 133 130 130 125
132 136 136 135 133 128 126 121 120 116 114 111 111 111 108 109 105 99 97 96 98 88 85 92 89 75 90 100 102 102 104 106 101 113 116 122 125 132 135 141 131 122 124
131 144 136 136 134 130 128 126 126 119 114 113 107 108 102 98 98 98 93 92 93 89 85 92 101 92 86 93 100 103 108 110 107 99 108 137 158 122 127 125 122 128 120
139 146 131 133 133 129 126 123 120 120 113 105 104 106 102 106 103 98 95 92 89 90 90 83 92 103 104 109 93 108 118 119 104 108 140 130 167 122 133 131 134 133 136
139 140 136 134 136 131 128 124 129 118 110 112 114 105 115 104 99 84 93 95 88 86 91 86 99 103 99 117 112 119 125 115 107 119 191 20 141 112 143 149 151 150 157
133 142 143 140 135 137 142 139 133 120 117 122 123 120 114 106 101 93 96 97 91 66 77 91 96 106 133 131 123 130 134 124 123 152 224 213 307 235 158 161 155 154 161
135 148 148 148 145 143 139 137 133 129 134 127 119 122 115 110 96 85 82 91 124 161 248 289 125 146 191 224 187 153 144 139 143 166 158 189 259 221 177 166 160 161 167
145 146 143 158 144 147 142 136 138 142 139 133 134 130 134 124 103 91 71 22 347 339 277 259 255 251 250 239 247 253 201 160 120 185 239 195 228 272 199 179 170 174 176
149 151 155 155 149 152 145 138 140 141 142 133 132 106 112 181 55 26 26 332 319 348 339 290 279 281 277 262 264 314 276 230 229 143 207 198 236 269 230 190 193 188 186
153 154 157 172 157 175 172 129 148 128 107 72 30 305 294 161 151 222 279 329 357 354 332 311 308 296 271 263 296 280 299 234 217 303 218 248 237 283 267 227 205 203 198
162 174 157 172 142 188 189 190 154 153 180 180 222 238 232 26 82 212 188 293 317 334 302 299 298 298 270 274 271 276 259 254 240 247 263 253 249 272 270 247 224 214 210
170 166 170 166 156 183 135 169 170 188 198 211 282 247 250 219 281 316 272 257 276 280 277 290 280 280 263 247 251 279 280 266 248 239 260 264 263 266 268 251 236 227 220
177 176 168 176 182 173 180 188 218 161 191 204 221 231 249 282 276 258 282 218 286 284 292 290 290 278 281 273 254 244 237 255 262 257 242 251 253 255 257 251 240 234 227
178 181 183 184 199 192 192 190 182 175 216 264 286 251 231 267 293 325 299 317 313 308 314 292 295 286 285 276 262 237 235 238 247 256 250 252 255 264 259 244 240 239 234
181 183 189 187 195 186 198 200 177 199 211 238 277 256 252 273 282 282 291 291 297 6 339 312 324 304 291 266 271 274 254 254 255 258 258 252 252 249 254 243 242 235 234
183 184 187 186 197 194 192 217 191 196 225 233 231 248 274 291 270 291 322 328 347 20 321 316 339 349 343 286 273 276 276 266 267 260 266 277 280 257 252 249 242 236 229
182 186 182 186 193 209 193 202 187 223 235 239 246 266 265 69 199 293 330 286 3 3 326 337 334 351 357 347 315 309 306 293 295 275 272 282 274 279 271 257 250 244 233
185 184 183 190 186 204 207 197 207 209 229 241 272 292 305 5 309 353 324 337 359 349 328 349 357 357 357 340 353 320 297 317 307 287 271 270 302 260 263 261 263 244 235
185 182 184 187 186 201 211 215 200 223 232 253 261 328 245 230 199 327 5 358 9 349 341 329 341 331 343 322 315 334 307 302 312 320 295 278 320 302 273 255 255 248 242
193 182 192 186 203 203 202 207 216 228 237 234 262 241 265 263 248 277 16 14 330 59 5 353 11 346 349 8 341 343 347 12 358 353 322 311 341 326 304 260 242 239 247
194 208 209 200 200 210 196 216 218 220 230 218 228 275 273 290 83 20 24 333 37 32 335 23 341 5 27 17 5 359 1 347 344 345 351 343 346 342 330 307 288 221 235
194 204 217 218 213 214 187 208 214 225 239 265 265 293 273 97 104 48 108 336 83 40 329 323 32 40 23 21 2 14 5 337 334 329 349 344 353 2 360 342 297 258 250
194 195 204 220 221 216 209 187 214 217 238 234 211 253 204 159 123 191 272 41 106 12 26 25 28 21 32 19 13 14 1 360 350 352 341 347 350 349 7 18 343 309 282
188 192 199 211 224 215 214 199 204 220 211 218 209 255 93 133 157 209 76 67 87 68 49 29 45 10 12 12 7 6 352 359 350 346 343 345 350 359 344 18 25 360 302